OE2ATN Weather Reports


time (UTC)temp
C
wind
direction
speed
KPH
gust
KPH
rain 1hr
cm
rain 24hr
cm
rain mn
cm
humidity
%
barometer
mb
20260502163434 23 103 6.4 14.5 0.00 0.00 0.00 23 1025.2
20260502162934 23 323 4.8 14.5 0.00 0.00 0.00 23 1025.3
20260502162435 23 99 3.2 11.3 0.00 0.00 0.00 22 1025.3
20260502161934 24 316 1.6 8.0 0.00 0.00 0.00 23 1025.4
20260502161434 24 347 0.0 8.0 0.00 0.00 0.00 24 1025.5
20260502160934 23 47 0.0 8.0 0.00 0.00 0.00 21 1025.5
20260502160434 23 83 4.8 8.0 0.00 0.00 0.00 22 1025.5
20260502151934 24 142 0.0 4.8 0.00 0.00 0.00 22 1026.0
20260502151434 24 120 0.0 4.8 0.00 0.00 0.00 17 1025.9
20260502150935 24 151 1.6 4.8 0.00 0.00 0.00 13 1026.0
20260502150434 24 114 1.6 4.8 0.00 0.00 0.00 15 1026.0
20260502130434 24 120 1.6 6.4 0.00 0.00 0.00 19 1027.8
20260502123435 24 151 0.0 8.0 0.00 0.00 0.00 23 1028.2
20260502122934 24 204 0.0 3.2 0.00 0.00 0.00 22 1028.2
20260502122434 23 213 0.0 4.8 0.00 0.00 0.00 22 1028.3
20260502121934 23 202 0.0 8.0 0.00 0.00 0.00 22 1028.3
20260502121434 23 213 4.8 9.7 0.00 0.03 0.00 20 1028.4
20260502120935 23 179 4.8 9.7 0.00 0.03 0.00 23 1028.5
20260502120435 23 166 1.6 6.4 0.00 0.03 0.00 23 1028.5
20260502115434 23 154 1.6 9.7 0.00 0.03 0.00 29 1028.6
20260502114934 23 11 0.0 3.2 0.00 0.03 0.00 20 1028.7
20260502114434 23 283 0.0 3.2 0.00 0.03 0.00 23 1028.7
20260502113935 23 145 0.0 4.8 0.00 0.03 0.00 23 1028.9
20260502113435 22 117 1.6 4.8 0.00 0.03 0.00 25 1029.0
20260502112935 22 109 0.0 4.8 0.00 0.03 0.00 27 1029.0
20260502112434 22 138 0.0 4.8 0.00 0.03 0.00 21 1029.0
20260502111934 22 63 0.0 1.6 0.00 0.03 0.00 25 1029.2
20260502111435 22 144 0.0 1.6 0.00 0.03 0.00 28 1029.2
20260502110935 21 85 0.0 6.4 0.00 0.03 0.00 27 1029.3
20260502110435 21 123 3.2 6.4 0.00 0.03 0.00 33 1029.5
20260502105935 21 266 0.0 1.6 0.00 0.03 0.00 30 1029.6
20260502105434 21 133 0.0 3.2 0.00 0.03 0.00 33 1029.5
20260502104934 20 149 0.0 3.2 0.00 0.03 0.00 39 1029.7
20260502104435 20 216 0.0 6.4 0.00 0.03 0.00 39 1029.7
20260502103935 20 106 0.0 6.4 0.00 0.03 0.00 39 1029.8
20260502103435 19 154 0.0 6.4 0.00 0.03 0.00 36 1029.9
20260502102935 19 134 1.6 6.4 0.00 0.03 0.00 41 1029.9
20260502102435 18 169 1.6 8.0 0.00 0.03 0.00 40 1030.0
20260502101934 18 121 3.2 8.0 0.00 0.03 0.00 41 1030.0
20260502101434 18 111 3.2 8.0 0.00 0.03 0.00 45 1030.2
20260502100935 18 127 3.2 8.0 0.00 0.03 0.00 44 1030.3
20260502100434 17 130 3.2 6.4 0.00 0.03 0.00 45 1030.4
20260502091435 15 134 3.2 6.4 0.00 0.03 0.00 57 1031.3
20260502090934 15 120 1.6 6.4 0.00 0.03 0.00 56 1031.3
20260502090434 15 116 1.6 6.4 0.00 0.03 0.00 56 1031.4
20260502071435 8 152 4.8 9.7 0.00 0.03 0.00 74 1032.9
20260502070935 8 138 3.2 9.7 0.00 0.03 0.00 73 1033.0
20260502070435 8 118 6.4 9.7 0.00 0.03 0.00 74 1033.1
20260502065935 8 144 4.8 8.0 0.00 0.03 0.00 74 1033.1
20260502065434 8 133 4.8 8.0 0.00 0.03 0.00 75 1033.3
20260502064934 8 109 3.2 6.4 0.00 0.03 0.00 75 1033.3
20260502064434 7 128 1.6 4.8 0.00 0.03 0.00 75 1033.4
20260502063934 7 159 0.0 4.8 0.00 0.03 0.00 76 1033.4
20260502063434 7 125 3.2 6.4 0.00 0.03 0.00 76 1033.5
20260502062935 7 118 3.2 6.4 0.00 0.03 0.00 76 1033.5
20260502062435 6 137 3.2 6.4 0.00 0.03 0.00 76 1033.5
20260502061935 6 116 3.2 6.4 0.00 0.03 0.00 75 1033.6
20260502061435 6 127 3.2 8.0 0.00 0.03 0.00 75 1033.7
20260502060935 6 97 3.2 8.0 0.00 0.03 0.00 76 1033.7
20260502060435 6 127 3.2 6.4 0.00 0.03 0.00 76 1033.6
20260502055935 6 109 3.2 6.4 0.00 0.03 0.00 76 1033.6
20260502055434 6 128 1.6 3.2 0.00 0.03 0.00 76 1033.6
20260502054934 7 134 0.0 1.6 0.00 0.03 0.00 76 1033.7
20260502054434 6 292 0.0 1.6 0.00 0.03 0.00 76 1033.7
20260502053935 6 292 0.0 1.6 0.00 0.03 0.00 76 1033.7
20260502053434 6 288 0.0 0.0 0.00 0.03 0.00 69 1033.8
20260502052934 5 288 0.0 0.0 0.00 0.03 0.00 65 1033.8
20260502052434 5 288 0.0 0.0 0.00 0.03 0.00 68 1033.7
20260502051935 5 288 0.0 0.0 0.00 0.03 0.00 58 1033.7
20260502051434 4 288 0.0 0.0 0.00 0.03 0.00 51 1033.7
20260502050935 3 288 0.0 0.0 0.00 0.03 0.00 38 1033.8
20260502050435 3 288 0.0 0.0 0.00 0.03 0.00 40 1033.8
20260502045935 2 288 0.0 0.0 0.00 0.03 0.00 42 1033.7
20260502045435 2 288 0.0 0.0 0.00 0.03 0.00 41 1033.8
20260502044934 2 288 0.0 1.6 0.00 0.03 0.00 38 1033.6
20260502044434 2 288 0.0 1.6 0.00 0.03 0.00 43 1033.7
20260502043934 2 288 0.0 1.6 0.00 0.03 0.00 44 1033.7
20260502043434 2 288 0.0 1.6 0.00 0.03 0.00 45 1033.8
20260502042934 2 288 0.0 1.6 0.00 0.03 0.00 48 1033.7
20260502042435 2 296 0.0 0.0 0.00 0.03 0.00 46 1033.7
20260502041934 2 296 0.0 0.0 0.00 0.03 0.00 45 1033.7
20260502041434 2 296 0.0 1.6 0.00 0.03 0.00 49 1033.7
20260502040934 2 296 0.0 1.6 0.00 0.03 0.00 48 1033.6
20260502040435 2 296 0.0 1.6 0.00 0.03 0.00 45 1033.6
20260502035935 2 292 0.0 3.2 0.00 0.03 0.00 46 1033.6
20260502035435 2 292 0.0 3.2 0.00 0.03 0.00 49 1033.6
20260502034934 2 293 0.0 3.2 0.00 0.03 0.00 53 1033.6
20260502034434 2 303 0.0 1.6 0.00 0.03 0.00 53 1033.5
20260502033934 2 303 0.0 1.6 0.00 0.03 0.00 55 1033.6
20260502033434 2 298 0.0 1.6 0.00 0.03 0.00 60 1033.6
20260502032934 2 298 0.0 0.0 0.00 0.03 0.00 61 1033.6
20260502032434 3 298 0.0 0.0 0.00 0.03 0.00 64 1033.5
20260502031935 3 310 0.0 0.0 0.00 0.03 0.00 64 1033.5
20260502031435 3 310 0.0 0.0 0.00 0.03 0.00 62 1033.5
20260502030934 3 310 0.0 4.8 0.00 0.03 0.00 59 1033.6
20260502030434 3 310 0.0 4.8 0.00 0.03 0.00 60 1033.6
20260502025934 3 288 1.6 3.2 0.00 0.03 0.00 61 1033.6
20260502025434 3 296 0.0 1.6 0.00 0.03 0.00 63 1033.5
20260502024934 3 296 0.0 1.6 0.00 0.03 0.00 64 1033.6
20260502024435 3 296 0.0 1.6 0.00 0.03 0.00 63 1033.7
20260502023934 3 296 0.0 1.6 0.00 0.03 0.00 63 1033.7
20260502023434 3 285 0.0 1.6 0.00 0.03 0.00 65 1033.7
20260502022934 3 285 0.0 1.6 0.00 0.03 0.00 64 1033.7
20260502022434 3 285 0.0 3.2 0.00 0.03 0.00 64 1033.8
20260502021935 3 285 0.0 3.2 0.00 0.03 0.00 66 1033.7
20260502021435 3 289 1.6 3.2 0.00 0.03 0.00 67 1033.6
20260502020935 3 320 0.0 3.2 0.00 0.03 0.00 67 1033.6
20260502020434 3 290 0.0 3.2 0.00 0.03 0.00 71 1033.7
20260502015934 3 283 3.2 3.2 0.00 0.03 0.00 74 1033.6
20260502015433 4 345 0.0 1.6 0.00 0.03 0.00 71 1033.7
20260502014934 4 313 0.0 1.6 0.00 0.03 0.00 70 1033.6
20260502014434 3 313 0.0 1.6 0.00 0.03 0.00 70 1033.6
20260502013935 3 317 0.0 1.6 0.00 0.03 0.00 70 1033.7
20260502013434 3 317 0.0 1.6 0.00 0.03 0.00 70 1033.7
20260502012934 3 286 0.0 1.6 0.00 0.03 0.00 71 1033.7
20260502012434 4 286 0.0 1.6 0.00 0.03 0.00 72 1033.7
20260502011933 4 290 0.0 1.6 0.00 0.03 0.00 73 1033.8
20260502011433 4 300 0.0 1.6 0.00 0.03 0.00 73 1033.7
20260502010933 4 292 0.0 1.6 0.00 0.03 0.00 72 1033.7
20260502010433 4 292 0.0 3.2 0.00 0.03 0.00 73 1033.8
20260502005933 4 292 1.6 3.2 0.00 0.03 0.00 74 1033.7
20260502005434 5 293 0.0 0.0 0.00 0.03 0.00 75 1033.8
20260502004933 5 293 0.0 0.0 0.00 0.03 0.00 75 1033.8
20260502004433 5 293 0.0 0.0 0.00 0.03 0.00 75 1033.8
20260502003932 5 293 0.0 1.6 0.00 0.03 0.00 75 1033.8
20260502003432 5 293 0.0 1.6 0.00 0.03 0.00 75 1033.8
20260502002932 5 293 0.0 1.6 0.00 0.03 0.00 75 1033.8
20260502002432 5 293 0.0 1.6 0.00 0.03 0.00 75 1033.9
20260502001932 5 293 0.0 1.6 0.00 0.03 0.00 75 1033.8
20260502001433 5 293 0.0 3.2 0.00 0.03 0.00 74 1033.7
20260502000932 5 293 0.0 3.2 0.00 0.03 0.00 74 1033.8
20260502000432 5 288 3.2 3.2 0.00 0.03 0.00 75 1033.7
20260501235932 5 292 0.0 1.6 0.00 0.03 0.00 76 1033.7
20260501235431 5 290 0.0 1.6 0.00 0.03 0.00 76 1033.7
20260501234931 5 290 0.0 3.2 0.00 0.03 0.00 76 1033.8
20260501234431 5 290 1.6 3.2 0.00 0.03 0.00 76 1033.8
20260501233932 5 298 0.0 0.0 0.00 0.03 0.00 76 1033.7
20260501233432 5 300 0.0 1.6 0.00 0.03 0.00 76 1033.7
20260501232931 5 300 0.0 4.8 0.00 0.03 0.00 76 1033.8
20260501232431 5 298 1.6 4.8 0.00 0.03 0.00 76 1033.7
20260501231931 6 282 0.0 0.0 0.00 0.03 0.00 76 1033.7
20260501231431 6 302 0.0 0.0 0.00 0.03 0.00 76 1033.7
20260501230930 5 302 0.0 1.6 0.00 0.03 0.00 76 1033.6
20260501230430 5 298 0.0 1.6 0.00 0.03 0.00 76 1033.7
20260501225931 6 292 0.0 0.0 0.00 0.03 0.00 75 1033.7
20260501225430 6 292 0.0 0.0 0.00 0.03 0.00 75 1033.7
20260501224931 6 292 0.0 1.6 0.00 0.03 0.00 75 1033.7
20260501224431 6 292 0.0 1.6 0.00 0.03 0.00 75 1033.7
20260501223930 6 290 0.0 0.0 0.00 0.03 0.00 74 1033.8
20260501223430 6 312 0.0 3.2 0.00 0.03 0.00 75 1033.8
20260501222930 6 298 0.0 3.2 0.00 0.03 0.00 75 1033.8
20260501222429 6 293 1.6 3.2 0.00 0.03 0.00 74 1033.8
20260501221930 6 296 0.0 1.6 0.00 0.03 0.00 74 1033.7
20260501221429 6 292 0.0 1.6 0.00 0.03 0.00 74 1033.8
20260501220930 6 293 0.0 3.2 0.00 0.03 0.00 74 1033.8
20260501220430 7 293 0.0 3.2 0.00 0.03 0.00 73 1033.8
20260501215929 7 295 3.2 3.2 0.00 0.03 0.03 72 1033.7
20260501215429 7 300 0.0 3.2 0.00 0.03 0.03 72 1033.7
20260501214930 7 296 0.0 3.2 0.00 0.03 0.03 72 1033.7
20260501214429 7 305 0.0 6.4 0.00 0.03 0.03 71 1033.7
20260501213928 7 283 3.2 6.4 0.00 0.03 0.03 70 1033.7
20260501213428 7 286 3.2 6.4 0.00 0.03 0.03 73 1033.7
20260501212929 7 293 1.6 4.8 0.00 0.03 0.03 73 1033.7
20260501212429 7 298 3.2 4.8 0.00 0.03 0.03 72 1033.5
20260501211928 7 288 0.0 3.2 0.00 0.03 0.03 71 1033.7
20260501211429 7 312 1.6 3.2 0.00 0.03 0.03 70 1033.6
20260501210929 7 302 0.0 3.2 0.00 0.03 0.03 70 1033.6
20260501210429 7 298 1.6 3.2 0.00 0.03 0.03 71 1033.5
20260501205928 7 282 0.0 1.6 0.00 0.03 0.03 70 1033.6
20260501205428 8 296 0.0 4.8 0.00 0.03 0.03 69 1033.5
20260501204926 8 282 1.6 6.4 0.00 0.03 0.03 69 1033.5
20260501204428 8 289 3.2 6.4 0.00 0.03 0.03 69 1033.5
20260501203928 8 295 3.2 4.8 0.00 0.03 0.03 68 1033.4
20260501203427 8 289 0.0 4.8 0.00 0.03 0.03 66 1033.4
20260501202928 8 295 3.2 6.4 0.00 0.03 0.03 66 1033.3
20260501202427 8 293 4.8 6.4 0.00 0.03 0.03 66 1033.3
20260501201927 8 302 3.2 6.4 0.00 0.03 0.03 66 1033.1
20260501201426 9 307 3.2 6.4 0.00 0.03 0.03 64 1033.0
20260501200927 9 306 0.0 3.2 0.00 0.03 0.03 64 1033.1
20260501200426 9 314 1.6 3.2 0.00 0.03 0.03 64 1033.0
20260501195927 9 317 0.0 6.4 0.00 0.03 0.03 65 1033.0
20260501195426 9 338 0.0 6.4 0.00 0.03 0.03 64 1033.0
20260501194927 10 296 3.2 6.4 0.00 0.03 0.03 60 1032.8
20260501194427 10 330 0.0 3.2 0.00 0.03 0.03 58 1032.7
20260501193926 11 303 1.6 3.2 0.00 0.03 0.03 58 1032.8
20260501193426 11 307 1.6 3.2 0.00 0.03 0.03 58 1032.7
20260501192927 11 288 0.0 3.2 0.00 0.03 0.03 57 1032.7
20260501192426 11 310 0.0 3.2 0.00 0.03 0.03 57 1032.6
20260501191926 11 347 0.0 4.8 0.00 0.03 0.03 57 1032.6
20260501191426 11 337 0.0 4.8 0.00 0.03 0.03 56 1032.5
20260501190926 11 302 0.0 3.2 0.00 0.03 0.03 55 1032.4
20260501190425 12 358 0.0 0.0 0.00 0.03 0.03 54 1032.4
20260501185926 12 3 0.0 1.6 0.00 0.03 0.03 52 1032.4
20260501185426 12 11 0.0 1.6 0.00 0.03 0.03 51 1032.3
20260501184925 12 319 0.0 3.2 0.00 0.03 0.03 51 1032.3
20260501184425 12 321 1.6 6.4 0.00 0.03 0.03 50 1032.2
20260501183925 12 312 1.6 6.4 0.00 0.03 0.03 51 1032.1
20260501183425 13 316 1.6 9.7 0.00 0.03 0.03 49 1032.1
20260501182925 13 321 3.2 9.7 0.00 0.03 0.03 49 1032.0
20260501182425 13 316 1.6 6.4 0.00 0.03 0.03 48 1031.9
20260501181925 13 0 0.0 4.8 0.00 0.03 0.03 47 1031.7
20260501181424 13 303 1.6 4.8 0.00 0.03 0.03 47 1031.6
20260501180925 13 1 0.0 3.2 0.00 0.03 0.03 47 1031.6
20260501180425 14 300 0.0 3.2 0.00 0.03 0.03 46 1031.6
20260501175924 14 333 0.0 4.8 0.00 0.03 0.03 44 1031.5
20260501175424 15 334 1.6 4.8 0.00 0.03 0.03 43 1031.5
20260501174924 15 307 1.6 4.8 0.00 0.03 0.03 40 1031.4
20260501174424 15 330 0.0 4.8 0.00 0.03 0.03 41 1031.4
20260501173924 16 296 0.0 4.8 0.00 0.03 0.03 41 1031.3
20260501173423 16 293 0.0 4.8 0.00 0.03 0.03 39 1031.3
20260501172924 17 13 0.0 4.8 0.00 0.03 0.03 38 1031.2
20260501172424 17 54 0.0 3.2 0.00 0.03 0.03 35 1031.2
20260501171923 17 199 0.0 14.5 0.00 0.03 0.03 34 1031.1
20260501171423 18 140 0.0 14.5 0.00 0.03 0.03 34 1031.1
20260501170924 18 134 0.0 16.1 0.00 0.03 0.03 31 1031.1
20260501170423 18 134 6.4 20.9 0.00 0.03 0.03 31 1031.0
20260501165923 18 344 6.4 20.9 0.00 0.03 0.03 31 1031.0
20260501165423 18 38 4.8 17.7 0.00 0.03 0.03 32 1031.0
20260501164923 18 134 8.0 14.5 0.00 0.03 0.03 31 1031.0
20260501164423 18 171 1.6 14.5 0.00 0.03 0.03 31 1030.9
20260501163922 18 109 3.2 17.7 0.00 0.03 0.03 32 1030.9